Aérodrome :
LOGIN :

S'inscrire | Disclaimer

   EN    FR    IT 

 










Légende :    VFR   VFR Marginal   IFR   IFR Intensif   IFR Très Intensif
Visi : 
Plafond : 
>= 8 km
>= 3000ft
5 à 8 km
1000 à 3000 ft
1500m à 5 km
500 à 1000 ft
800 à 1500m
200 à 500 ft
< 800m
< 200 ft
Symboles :   Orages  Brouillard  Fortes neiges  Fortes précipitations  Vent > 20 kt
SIGMETs :   Divers  Orages  Givrage  Turbulence  Onde Orograph.  Cendres Volcan.







- Altitude de l'aérodrome : 19 ft
- Code IATA : LCY
- Voir les cartes d'approche


EGLC - London City

DERNIER METAR :
  • 171820Z AUTO 24005KT 200V290 9999 NCD 14/06 Q1017

METARs EXPIRÉS :
  • 171750Z AUTO 21005KT 150V270 9999 NCD 14/06 Q1017
  • 171720Z AUTO 23006KT 200V330 9999 NCD 14/06 Q1018
  • 171650Z AUTO 23006KT 170V260 9999 NCD 15/06 Q1017
  • 171620Z AUTO 25007KT 210V280 9999 NCD 15/06 Q1018
  • 171550Z AUTO 24007KT 9999 NCD 15/06 Q1018

TAF TAF EGLC
Valide du 17 à 18h jusqu'au 17 à 21h UTC


171705Z 1718/1721 24006KT 9999 FEW035
ATIS : +44 20 7646 0224
Pas de NOTAMs connus pour ce terrain.



MET'MAP, la Météo Aéronautique d'un coup d'oeil ! - Copyright ORBIFLY Décembre 2007 - Disclaimer

ORBIFLY MET'MAP TEAM :

Programmation & Développement : Alexandra Zaïnal
Conception & Développement : Baudouin d'Aumeries
Co-Programmation & Développement : Marc-Olivier Méhu
Soutien technique & logistique : Manuel Goepfert

Contact : metmap@orbifly.com




SOURCES & CREDITS :

   NOAA